Ingeniero Juan Guillermo Villasana Airport

Jump to: basic info | weather | frequencies | runways | comments

Related pages: nearby airports | nearby navaids | notams | map

Basic information (top)

Codes: MMPC
Location: lon 20.077400, lat -98.782501, elev 7,600 ft / 2,316 m msl
Status: small_airport

Weather (top)

Current conditions for Licenciado Benito Juarez International Airport 42nm (77km) SSW (rec'd 2014/11/22 23:45Z):

MMMX 222345Z 31008KT 12SM SCT020TCU SCT080 BKN200 21/08 A3021 NOSIG RMK SLP068 54000 963 8/232 HZY

Airport forecast for Licenciado Benito Juarez International Airport 42nm (77km) SSW (rec'd 2014/11/22 06:11Z):

TAF MMMX 220504Z 2206/2312 09005KT P6SM BKN020 OVC080 TX21/2222Z TN11/2212Z 
     FM220800 07005KT 6SM HZ SCT020 BKN080 
     FM221800 14012KT P6SM SCT020 BKN080 BKN250 
     FM230600 07005KT P6SM SCT020 BKN080

Frequencies (top)

Verify before use: may be inaccurate or out of date.

AFIS: 122.9 MHz (AFIS)

Runways (top)

03/21: 6,825 x 85 ft (2,080 x 26 m) — paved — not lighted — threshold 03 displaced 656 ft (200 m) — threshold 21 displaced 865 ft (264 m)

Latest comments (top)

No comments yet for Ingeniero Juan Guillermo Villasana Airport

More... (top)

See also NOTAMs and nearby airports and navaids, or visit the Ingeniero Juan Guillermo Villasana Airport page at the main OurAirports website..